Location: Baltimore
(39.2900°N, 76.6130°W)
Time: 06:00:30
(UTC-05:00)

Tiangong 1 - Visible Passes

Search period start: 18 February 2018 00:00
Search period end: 28 February 2018 00:00
Orbit: 249 x 272 km, 42.8° (Epoch: 18 February)

Date Brightness Start Highest point End Pass type
(mag) Time Alt. Az. Time Alt. Az. Time Alt. Az.
18 Feb 0.3 05:43:04 52° SW 05:43:16 56° SSW 05:45:32 10° ESE visible
19 Feb 1.4 05:38:05 31° SSW 05:38:05 31° SSW 05:39:58 10° SE visible
20 Feb 2.6 05:32:59 16° S 05:32:59 16° S 05:33:54 10° SSE visible
